When you browse on this site, cookies collect data to enhance your experience and personalize the content and advertising you see.
Visit our Privacy Policy to learn more. By continuing to use the site, you agree to this use of cookies and data.
  • In United Kingdom
  • List of Countries
  • For 7 days
  • Water Temperature
  • Weather Map
  • Weather Widgets
  • user-avatar
    Login

    Hourly Weather Pecs

    Today, 3 June, Wednesday

    Time Temperature Precipitation Wind Pressure Humidity
    00:00 +10°C° 0 mm 2 mps 739 mmHg 82%
    01:00 +10°C° 0 mm 2 mps 739 mmHg 85%
    02:00 +10°C° 0.1 mm 2 mps 738 mmHg 87%
    03:00 +10°C° 0.1 mm 3 mps 738 mmHg 89%
    04:00 +10°C° 0.1 mm 3 mps 737 mmHg 90%
    05:00 +12°C° 0 mm 3 mps 737 mmHg 86%
    06:00 +13°C° 0 mm 3 mps 737 mmHg 82%
    07:00 +16°C° 0 mm 3 mps 737 mmHg 77%
    08:00 +17°C° 0.4 mm 4 mps 737 mmHg 73%
    09:00 +18°C° 0.4 mm 4 mps 737 mmHg 68%
    10:00 +20°C° 0.4 mm 4 mps 736 mmHg 64%
    11:00 +20°C° 0.7 mm 4 mps 736 mmHg 64%
    12:00 +21°C° 0.7 mm 4 mps 736 mmHg 63%
    13:00 +21°C° 0.7 mm 4 mps 736 mmHg 63%
    14:00 +21°C° 0.6 mm 3 mps 735 mmHg 64%
    15:00 +21°C° 0.6 mm 2 mps 735 mmHg 65%
    16:00 +21°C° 0.6 mm 2 mps 735 mmHg 67%
    17:00 +20°C° 0.4 mm 2 mps 735 mmHg 71%
    18:00 +19°C° 0.4 mm 2 mps 735 mmHg 76%
    19:00 +17°C° 0.4 mm 3 mps 734 mmHg 81%
    20:00 +16°C° 0.2 mm 2 mps 735 mmHg 83%
    21:00 +15°C° 0.2 mm 2 mps 735 mmHg 86%
    22:00 +13°C° 0.2 mm 2 mps 735 mmHg 88%
    23:00 +13°C° 0 mm 2 mps 734 mmHg 90%

    Tomorrow, 4 June, Thursday

    Time Temperature Precipitation Wind Pressure Humidity
    00:00 +13°C° 0 mm 2 mps 734 mmHg 91%
    01:00 +12°C° 0 mm 2 mps 734 mmHg 93%
    02:00 +12°C° 0.1 mm 2 mps 734 mmHg 93%
    03:00 +12°C° 0.1 mm 2 mps 733 mmHg 92%
    04:00 +12°C° 0.1 mm 2 mps 733 mmHg 92%
    05:00 +13°C° 0.1 mm 3 mps 733 mmHg 88%
    06:00 +15°C° 0.1 mm 4 mps 733 mmHg 83%
    07:00 +16°C° 0.1 mm 5 mps 733 mmHg 79%
    08:00 +19°C° 0 mm 6 mps 733 mmHg 71%
    09:00 +21°C° 0 mm 7 mps 733 mmHg 64%
    10:00 +22°C° 0 mm 8 mps 734 mmHg 57%
    11:00 +23°C° 0 mm 8 mps 733 mmHg 54%
    12:00 +24°C° 0 mm 8 mps 733 mmHg 51%
    13:00 +26°C° 0 mm 8 mps 733 mmHg 49%
    14:00 +26°C° 0 mm 7 mps 732 mmHg 52%
    15:00 +26°C° 0 mm 6 mps 732 mmHg 55%
    16:00 +26°C° 0 mm 5 mps 732 mmHg 58%
    17:00 +23°C° 0 mm 5 mps 732 mmHg 61%
    18:00 +21°C° 0 mm 5 mps 731 mmHg 64%
    19:00 +20°C° 0 mm 5 mps 731 mmHg 67%
    20:00 +19°C° 0 mm 4 mps 731 mmHg 66%
    21:00 +19°C° 0 mm 4 mps 731 mmHg 65%
    22:00 +19°C° 0 mm 3 mps 731 mmHg 64%
    23:00 +18°C° 0 mm 3 mps 731 mmHg 63%

    Day after tomorrow, 5 June, Friday

    Time Temperature Precipitation Wind Pressure Humidity
    00:00 +18°C° 0 mm 3 mps 731 mmHg 62%
    01:00 +17°C° 0 mm 3 mps 731 mmHg 61%
    02:00 +17°C° 0.2 mm 3 mps 730 mmHg 68%
    03:00 +16°C° 0.2 mm 3 mps 730 mmHg 74%
    04:00 +16°C° 0.2 mm 3 mps 730 mmHg 81%
    05:00 +17°C° 0.2 mm 4 mps 730 mmHg 80%
    06:00 +18°C° 0.2 mm 4 mps 730 mmHg 78%
    07:00 +19°C° 0.2 mm 5 mps 730 mmHg 77%
    08:00 +20°C° 0.3 mm 5 mps 730 mmHg 75%
    09:00 +21°C° 0.3 mm 6 mps 730 mmHg 73%
    10:00 +22°C° 0.3 mm 7 mps 730 mmHg 71%
    11:00 +21°C° 1.3 mm 7 mps 730 mmHg 75%
    12:00 +20°C° 1.3 mm 7 mps 731 mmHg 79%
    13:00 +19°C° 1.3 mm 6 mps 731 mmHg 84%
    14:00 +17°C° 2.3 mm 5 mps 731 mmHg 87%
    15:00 +17°C° 2.3 mm 4 mps 731 mmHg 91%
    16:00 +16°C° 2.3 mm 2 mps 732 mmHg 94%
    17:00 +16°C° 0.5 mm 2 mps 732 mmHg 94%
    18:00 +16°C° 0.5 mm 2 mps 733 mmHg 94%
    19:00 +16°C° 0.5 mm 2 mps 733 mmHg 95%
    20:00 +15°C° 0 mm 2 mps 734 mmHg 94%
    21:00 +14°C° 0 mm 2 mps 735 mmHg 93%
    22:00 +13°C° 0 mm 1 mps 735 mmHg 93%
    23:00 +13°C° 0 mm 1 mps 736 mmHg 92%

    6 June, Saturday

    Time Temperature Precipitation Wind Pressure Humidity
    00:00 +12°C° 0 mm 1 mps 736 mmHg 92%
    01:00 +12°C° 0 mm 1 mps 736 mmHg 92%
    02:00 +12°C° 0 mm 1 mps 737 mmHg 91%
    03:00 +10°C° 0 mm 0 mps 737 mmHg 91%
    04:00 +10°C° 0 mm 0 mps 738 mmHg 90%
    05:00 +12°C° 0 mm 0 mps 738 mmHg 86%
    06:00 +13°C° 0 mm 0 mps 738 mmHg 82%
    07:00 +15°C° 0 mm 0 mps 739 mmHg 77%
    08:00 +19°C° 0 mm 1 mps 739 mmHg 70%
    09:00 +19°C° 0 mm 2 mps 739 mmHg 64%
    10:00 +21°C° 0 mm 2 mps 739 mmHg 57%
    11:00 +23°C° 0 mm 2 mps 739 mmHg 55%
    12:00 +24°C° 0 mm 2 mps 739 mmHg 53%
    13:00 +24°C° 0 mm 2 mps 738 mmHg 51%
    14:00 +24°C° 0 mm 2 mps 738 mmHg 52%
    15:00 +25°C° 0 mm 2 mps 738 mmHg 54%
    16:00 +25°C° 0 mm 2 mps 737 mmHg 55%
    17:00 +23°C° 0 mm 2 mps 737 mmHg 61%
    18:00 +21°C° 0 mm 2 mps 737 mmHg 66%
    19:00 +20°C° 0 mm 1 mps 737 mmHg 72%
    20:00 +19°C° 0 mm 1 mps 738 mmHg 73%
    21:00 +18°C° 0 mm 1 mps 738 mmHg 75%
    22:00 +18°C° 0 mm 1 mps 738 mmHg 76%
    23:00 +16°C° 0 mm 1 mps 738 mmHg 78%

    7 June, Sunday

    Time Temperature Precipitation Wind Pressure Humidity
    00:00 +16°C° 0 mm 1 mps 738 mmHg 79%
    01:00 +15°C° 0 mm 1 mps 738 mmHg 81%
    02:00 +14°C° 0 mm 0 mps 738 mmHg 82%
    03:00 +14°C° 0 mm 0 mps 738 mmHg 84%
    04:00 +14°C° 0 mm 0 mps 738 mmHg 85%
    05:00 +16°C° 0 mm 1 mps 738 mmHg 83%
    06:00 +19°C° 0 mm 1 mps 738 mmHg 80%
    07:00 +20°C° 0 mm 1 mps 739 mmHg 77%
    08:00 +21°C° 0.1 mm 2 mps 739 mmHg 71%
    09:00 +23°C° 0.1 mm 2 mps 739 mmHg 65%
    10:00 +24°C° 0.1 mm 3 mps 739 mmHg 60%
    11:00 +25°C° 0.2 mm 3 mps 738 mmHg 59%
    12:00 +25°C° 0.2 mm 3 mps 738 mmHg 58%
    13:00 +26°C° 0.2 mm 3 mps 738 mmHg 58%
    14:00 +25°C° 0.5 mm 3 mps 737 mmHg 60%
    15:00 +25°C° 0.5 mm 3 mps 737 mmHg 63%
    16:00 +25°C° 0.5 mm 2 mps 737 mmHg 66%
    17:00 +24°C° 0.5 mm 2 mps 737 mmHg 70%
    18:00 +23°C° 0.5 mm 2 mps 737 mmHg 75%
    19:00 +21°C° 0.5 mm 1 mps 737 mmHg 79%
    20:00 +20°C° 0 mm 1 mps 737 mmHg 81%
    21:00 +19°C° 0 mm 1 mps 738 mmHg 84%
    22:00 +17°C° 0 mm 2 mps 738 mmHg 86%
    23:00 +17°C° 0.1 mm 2 mps 738 mmHg 88%

    8 June, Monday

    Time Temperature Precipitation Wind Pressure Humidity
    00:00 +16°C° 0.1 mm 2 mps 738 mmHg 90%
    01:00 +15°C° 0.1 mm 2 mps 738 mmHg 92%
    02:00 +15°C° 0 mm 2 mps 738 mmHg 93%
    03:00 +14°C° 0 mm 1 mps 738 mmHg 94%
    04:00 +14°C° 0 mm 1 mps 738 mmHg 95%
    05:00 +15°C° 0.1 mm 1 mps 739 mmHg 93%
    06:00 +15°C° 0.1 mm 1 mps 739 mmHg 91%
    07:00 +16°C° 0.1 mm 1 mps 739 mmHg 89%
    08:00 +18°C° 0 mm 1 mps 740 mmHg 86%
    09:00 +18°C° 0 mm 2 mps 740 mmHg 82%
    10:00 +19°C° 0 mm 2 mps 740 mmHg 79%
    11:00 +20°C° 0 mm 2 mps 740 mmHg 75%
    12:00 +21°C° 0 mm 2 mps 740 mmHg 71%
    13:00 +23°C° 0 mm 2 mps 740 mmHg 67%
    14:00 +22°C° 0 mm 3 mps 739 mmHg 67%
    15:00 +22°C° 0 mm 3 mps 739 mmHg 67%
    16:00 +22°C° 0 mm 3 mps 739 mmHg 67%
    17:00 +21°C° 0 mm 3 mps 739 mmHg 72%
    18:00 +20°C° 0 mm 3 mps 739 mmHg 76%
    19:00 +18°C° 0 mm 2 mps 740 mmHg 81%
    20:00 +17°C° 0 mm 2 mps 740 mmHg 83%
    21:00 +16°C° 0 mm 2 mps 740 mmHg 85%
    22:00 +15°C° 0 mm 1 mps 741 mmHg 86%
    23:00 +15°C° 0 mm 2 mps 741 mmHg 85%
    Show more